Regional Weather Roundup
Issued by NWS San Angelo, TX

Home | Current Version | Previous Version | Text Only | Print | Product List | Glossary On
Versions: 1 2 3 4 5 6 7 8 9 10 11 12 13 14 15 16 17 18 19 20 21 22 23 24 25 26 27 28 29 30 31 32 33 34 35 36 37 38 39 40 41 42 43 44 45 46 47 48 49 50
000
ASUS44 KSJT 172010
RWRSJT
WEST CENTRAL TEXAS REGIONAL WEATHER ROUNDUP
NATIONAL WEATHER SERVICE SAN ANGELO TX
200 PM CST WED JAN 17 2018

NOTE: "FAIR" INDICATES FEW OR NO CLOUDS BELOW 12,000 FEET WITH NO
SIGNIFICANT WEATHER AND/OR OBSTRUCTIONS TO VISIBILITY.

TXZ049-054-064>066-071>073-076>078-098-099-113-114-127-128-139-140-
154-155-168>170-172100
...LOCATIONS ACROSS WEST CENTRAL TEXAS...

CITY           SKY/WX    TMP DP  RH WIND       PRES   REMARKS
SAN ANGELO     PTSUNNY   38  -3  17 CALM      30.52F
ABILENE        SUNNY     37   1  22 E7        30.54F WCI  32
DYESS AFB      SUNNY     38   2  22 E5        30.53F WCI  34
JUNCTION       CLOUDY    37  -3  18 S5        30.53F WCI  33
SWEETWATER     MOSUNNY   39  -1  19 SE3       30.51F
BROWNWOOD      SUNNY     37  -4  17 E5        30.58F WCI  34
COLEMAN        CLEAR     37  -4  17 SE3       30.56F
SONORA         CLOUDY    36  -9  14 CALM      30.55F
OZONA          CLOUDY    36  -6  17 SE7       30.52F WCI  30
BRADY          NOT AVBL
$$

TEXAS PANHANDLE/OKLAHOMA PANHANDLE

CITY           SKY/WX    TMP DP  RH WIND       PRES   REMARKS
AMARILLO       SUNNY     43  10  26 S20G26    30.35F WCI  34
BORGER         SUNNY     46  13  26 SW14G25   30.35F WCI  40
CANADIAN       SUNNY     45   4  18 S20G26    30.39F WCI  37
DALHART        SUNNY     44  11  26 SW17G24   30.30F WCI  36
DUMAS          CLEAR     43   7  23 SW17G24   30.32F WCI  35
GUYMON         NOT AVBL
HEREFORD       CLEAR     44  13  27 MISG      30.36F
PAMPA          CLEAR     45  11  24 SW20G25   30.37F WCI  38
PERRYTON       SUNNY     47  13  25 SW22      30.33F WCI  39
$$

SOUTHERN PANHANDLE/SOUTH PLAINS/ROLLING PLAINS

CITY           SKY/WX    TMP DP  RH WIND       PRES   REMARKS
LUBBOCK        SUNNY     41   4  21 S17       30.41F WCI  32
SNYDER         SUNNY     35   0  22 S7        30.50F WCI  29
CHILDRESS      SUNNY     40   0  18 S14       30.49F WCI  32
SEMINOLE       CLOUDY    41  -1  16 S14       30.43F WCI  34
$$

PERMIAN BASIN

CITY           SKY/WX    TMP DP  RH WIND       PRES   REMARKS
MIDLAND        CLOUDY    36  -9  14 SE12      30.44F WCI  28
ODESSA         CLOUDY    36  -8  15 S12       30.44F WCI  28
WINK           CLOUDY    35  -7  16 SE10      30.43F WCI  27
$$

FAR WEST/SOUTHWEST MOUNTAINS/TRANS PECOS

CITY           SKY/WX    TMP DP  RH WIND       PRES   REMARKS
ALPINE         CLOUDY    39  23  54 S6        30.39F WCI  34
DRYDEN           N/A     60   0   9 SE9       30.47F
EL PASO        PTSUNNY   40  14  34 N6        30.37F WCI  36
FORT STOCKTON  CLOUDY    36   5  27 E10       30.40F WCI  28
GUADALUPE PASS SUNNY     37  17  44 W29       30.31F WCI  25
MARFA          CLOUDY    33  16  49 S8        30.36  WCI  26
PECOS          CLOUDY    36  -2  20 E7        30.44F WCI  30
$$

DALLAS/FORT WORTH METROPLEX

CITY           SKY/WX    TMP DP  RH WIND       PRES   REMARKS
DFW AIRPORT    SUNNY     34   2  25 VRB3      30.65F
FTW MEACHAM    SUNNY     32   2  27 E3        30.65F
DAL-EXECUTIVE  SUNNY     32   0  25 VRB5      30.65F WCI  27
GRAND PRAIRIE  SUNNY     32   1  27 CALM      30.68F
ADDISON        SUNNY     30   3  31 NW3       30.67F
MESQUITE       CLEAR     30   1  29 N8        30.69F WCI  23
LANCASTER      CLEAR     31   4  31 NE5       30.69F WCI  27
$$

NORTH CENTRAL TEXAS

CITY           SKY/WX    TMP DP  RH WIND       PRES   REMARKS
SHRMAN/DENISON CLEAR     30   5  34 W5        30.68F WCI  25
GAINESVILLE    SUNNY     30   1  28 CALM      30.67F
BRIDGEPORT     CLEAR     33   3  27 S3        30.66F
DENTON         SUNNY     32   5  32 N3        30.66F
WAXAHACHIE     CLEAR     33   9  37 NE6       30.68F WCI  27
GRANBURY       CLEAR     34   2  25 CALM      30.66F
$$

WESTERN NORTH TEXAS

CITY           SKY/WX    TMP DP  RH WIND       PRES   REMARKS
WICHITA FALLS  SUNNY     32   1  26 SE8       30.61F WCI  25
VERNON         CLEAR     37 -12  12 S9        30.58  WCI  31
BRECKENRIDGE   CLEAR     39  -3  17 CALM      30.59F
COMANCHE       SUNNY     34   4  28 CALM      30.60F
$$

CENTRAL AND SOUTH CENTRAL TEXAS

CITY           SKY/WX    TMP DP  RH WIND       PRES   REMARKS
AUSTIN/BERGSTM SUNNY     34  12  40 NE8       30.65F WCI  27
WACO           SUNNY     33   8  35 NE8       30.67F WCI  26
HILLSBORO      CLEAR     32  10  40 N5        30.66F WCI  27
TEMPLE         SUNNY     33   5  30 NE8       30.65F WCI  26
KILLEEN-GRAY   SUNNY     34   3  27 E7        30.60F WCI  27
FORT HOOD      SUNNY     33   2  26 NE6       30.59F WCI  28
GEORGETOWN     SUNNY     35   5  28 VRB7      30.65F WCI  29
LAGO VISTA     FAIR      37   4  24 MISG      30.59F
SAN MARCOS     SUNNY     35  11  36 NE6       30.65F WCI  30
NEW BRAUNFELS  SUNNY     37  13  37 E10       30.63F WCI  30
RANDOLPH AFB   CLOUDY    36   9  32 E6        30.62F WCI  31
SAN ANTONIO    PTSUNNY   36   7  29 VRB3      30.62F
STINSON        CLOUDY    34  11  38 CALM      30.63F
PLEASANTON     NOT AVBL
LA GRANGE        N/A     34  15  45 NE6       30.64F WCI  29
GIDDINGS       CLEAR     32  12  44 NE7       30.66F WCI  26
$$

EAST TEXAS

CITY           SKY/WX    TMP DP  RH WIND       PRES   REMARKS
PARIS          SUNNY     32   9  38 CALM      30.68F
CLARKSVILLE    NOT AVBL
TYLER          SUNNY     31   9  39 NE8       30.67F WCI  23
LONGVIEW       SUNNY     29  15  56 E6        30.69F WCI  23
PALESTINE      CLEAR     32  10  40 N7        30.68F WCI  26
NACOGDOCHES    SUNNY     34   8  33 N8        30.67F WCI  27
$$

TEXAS HILL COUNTRY AND EDWARDS PLATEAU

CITY           SKY/WX    TMP DP  RH WIND       PRES   REMARKS
LLANO          CLEAR     39   1  20 CALM      30.62F
HORSESHOE BAY  FAIR      38   7  27 E5        30.60F WCI  34
KERRVILLE      CLOUDY    38   4  23 SE6       30.55F WCI  34
FREDERICKSBRG  SUNNY     37  -2  19 NE5       30.55F WCI  34
ROCKSPRINGS      N/A     34  -6  18 CALM      30.56F
HONDO          CLOUDY    36  10  34 NE3       30.62F
UVALDE         CLOUDY    34   6  31 E5        30.62F WCI  29
DEL RIO        CLOUDY    37   5  26 S9        30.58F WCI  30
$$

SOUTHEAST TEXAS

CITY           SKY/WX    TMP DP  RH WIND       PRES   REMARKS
COLLEGE STN    SUNNY     35   9  33 NE9       30.65F WCI  28
CALDWELL       CLEAR     33  11  39 N9        30.66F WCI  25
CROCKETT         N/A     34   7  32 N6        30.69F WCI  29
BRENHAM        SUNNY     33  13  42 NE7       30.67F WCI  27
HUNTSVILLE     SUNNY     33  11  39 N6        30.64F WCI  28
CONROE         SUNNY     35  13  40 N8        30.65F WCI  29
HOUSTON BUSH   MOSUNNY   36  14  40 NE6       30.65F WCI  31
HOUSTON HOBBY  FAIR      33  13  43 VRB3      30.65F
PERLAND        FAIR      34  14  43 N7        30.67F WCI  28
WHARTON        CLOUDY    30  20  64 NW6       30.68F WCI  24
$$

THE UPPER TEXAS COAST

CITY           SKY/WX    TMP DP  RH WIND       PRES   REMARKS
ORANGE         FAIR      34  16  46 N8        30.65F WCI  28
PORT ARTHUR    FAIR      36  14  40 N12       30.63F WCI  28
GALVESTON      FAIR      33  19  56 N10       30.66F WCI  25
ANGLETON       FAIR      35  17  47 N12       30.65F WCI  27
BAY CITY       CLOUDY    33  22  64 N6        30.66F WCI  28
$$

TEXAS COASTAL BEND, RIO GRANDE PLAINS DEEP SOUTH TEXAS

CITY           SKY/WX    TMP DP  RH WIND       PRES   REMARKS
VICTORIA       CLOUDY    34  13  41 N10       30.67F WCI  26
BEEVILLE       CLOUDY    33  10  38 N10G16    30.66F WCI  25
ROCKPORT       CLOUDY    34  12  40 N8        30.67F WCI  27
PORT ARANSAS   NOT AVBL
PORT LAVACA    CLOUDY    32  19  58 N12       30.68F WCI  23
CORPUS CHRISTI CLOUDY    33  12  41 NE8       30.68F WCI  26
KINGSVILLE NAS CLOUDY    35  10  35 N8        30.68F WCI  29
COTULLA        CLOUDY    34   7  32 S5        30.65F WCI  30
LAREDO         CLOUDY    38  17  42 E5        30.64F WCI  34
BROWNSVILLE    NOT AVBL
PORT ISABEL    NOT AVBL
HEBBRONVILLE   CLOUDY    32  14  47 NE6       30.63F WCI  26
MCALLEN        CLOUDY    41  12  30 N9        30.66F WCI  35
WESLACO        CLOUDY    36  14  41 N8        30.66F WCI  29
FALFURRIAS     CLOUDY    37   6  28 NE6       30.67F WCI  32
EDINBURG       CLOUDY    39   8  27 N8        30.67F WCI  34
$$




USA.gov is the U.S. government's official web portal to all federal, state and local government web resources and services.